Regional Weather Roundup
Issued by NWS Raleigh/Durham, NC

Home | Current Version | Previous Version | Text Only | Print | Product List | Glossary On
Versions: 1 2 3 4 5 6 7 8 9 10 11 12 13 14 15 16 17 18 19 20 21 22 23 24 25 26 27 28 29 30 31 32 33 34 35 36 37 38 39 40 41 42 43 44 45 46 47 48 49 50
000
ASUS42 KRAH 271410
RWRRAH
NORTH CAROLINA WEATHER ROUNDUP
NATIONAL WEATHER SERVICE RALEIGH NC
1000 AM EDT WED MAY 27 2015

NOTE: "FAIR" INDICATES FEW OR NO CLOUDS BELOW 12,000 FEET WITH NO
SIGNIFICANT WEATHER AND/OR OBSTRUCTIONS TO VISIBILITY.

NCZ001-053-055-056-065-067-271500-
WESTERN NORTH CAROLINA

CITY           SKY/WX    TMP DP  RH WIND       PRES   REMARKS
ASHEVILLE      CLOUDY    64  60  87 CALM      30.30S FOG
JEFFERSON      MOSUNNY   69  52  55 W6        30.31F
MORGANTON      CLOUDY    66  65  94 S3        30.32F
HICKORY        CLOUDY    68  62  81 SW7       30.27F
RUTHERFORDTON  CLOUDY    67  65  92 CALM      30.29S
MOUNT AIRY     CLOUDY    68  64  88 SW3       30.29S
BOONE          SUNNY     66  55  66 CALM      30.32F
$$

NCZ021-022-025-041-071-084-088-271500-
CENTRAL NORTH CAROLINA

CITY           SKY/WX    TMP DP  RH WIND       PRES   REMARKS
CHARLOTTE      CLOUDY    70  65  84 SW5       30.28S
GREENSBORO     PTSUNNY   74  65  73 SW10      30.26S
WINSTON-SALEM  PTSUNNY   71  63  75 SW8       30.28R
RALEIGH-DURHAM PTSUNNY   76  70  82 SW9       30.27S
FORT BRAGG     MOSUNNY   78  69  73 SW8       30.26F
FAYETTEVILLE   PTSUNNY   79  69  71 SW10      30.26F
BURLINGTON     SUNNY     77  66  68 S7        30.25F
LAURINBURG     CLOUDY    79  67  66 SW7       30.27F
$$

NCZ011-015-027-028-043-044-047-080-103-271500-
NORTHEASTERN NORTH CAROLINA

CITY           SKY/WX    TMP DP  RH WIND       PRES   REMARKS
ROCKY MT-WILSO CLOUDY    77  70  79 SW7       30.26S
GREENVILLE     PTSUNNY   79  72  78 SW8       30.27S
WASHINGTON     PTSUNNY   78  70  76 SW8       30.28S
ELIZABETH CITY PTSUNNY   78  69  73 S14       30.27S
MANTEO         CLOUDY    75  66  73 S13       30.29S
CAPE HATTERAS  SUNNY     76  62  62 S9        30.30S
$$

NCZ078-087-090-091-093-098-101-271500-
SOUTHEASTERN NORTH CAROLINA

CITY           SKY/WX    TMP DP  RH WIND       PRES   REMARKS
LUMBERTON      MOSUNNY   82  70  66 W12       30.27F
GOLDSBORO      PTSUNNY   79  70  73 SW12      30.24F
KINSTON        MOSUNNY   81  70  69 SW8       30.27S
KENANSVILLE    PTSUNNY   78  69  74 SW7       30.28F
NEW BERN       CLOUDY    80  69  69 S3        30.29S
CHERRY POINT   CLOUDY    79  67  66 SW6       30.29R
BEAUFORT       PTSUNNY   78  67  68 S10       30.29R
JACKSONVILLE   CLOUDY    79  68  69 S8        30.27S
WILMINGTON     PTSUNNY   79  67  66 SW7       30.28S
$$




USA.gov is the U.S. government's official web portal to all federal, state and local government web resources and services.